THOR ABLESTAR DEB, 558

Orbit data source: Space-Track

THOR ABLESTAR DEB, 558 is space debris in LEO originally from a launch on Thu, 29 Jun 1961 UTC launched from the Air Force Eastern Test Range (AFETR). Debris objects in space refer to the collection of defunct objects orbiting the Earth. Examples of debris include non-operational satellites, rocket bodies, and fragments generated from explosions, collisions, or faulty payload assembly.

Loading next visibility...
Identifier
558, 1961-015GQ
Orbit
LEO
Country
Flag of USUS
Related business
Manufacturer
Unknown
Mission
Spacecraft
Bus & Motor
Unknown
Mass
Unknown
Launch date (UTC)
1961-06-29 (65 years ago)
Launch vehicle
Unknown
Launch site
Air Force Eastern Test Range (AFETR)
Object type
Payload
Rocket body
Debris
Shape & HBR
Unknown shape, 0.2 m
Radar Cross Section
Medium (>0.1 m² and <1 m²)

Expand to show TLE details & history
Last TLE update: 17 hours ago

TLE from 17 hours ago
0 THOR ABLESTAR DEB
1 00558U 61015GQ  26173.67091913  .00000059  00000-0  30948-3 0  9997
2 00558  65.6977 145.5889 0462135  97.2579  74.0572 12.86530333 50262
Epoch: 2026-06-22T16:06Z
TLE epoch observation values (Epoch: 2026-06-22T16:06:07.412Z)
Latitude
3.13052°
Longitude
171.79648°
Altitude
1,234.663 km
Speed
7.277 km/s
True Right ascension
21h 36m 43s
True Declination
3° 06' 47"
Sunlit
Object was in daylight at epoch
Visualization orbit readout
Latitude
Unknown
Longitude
Unknown
Altitude
Unknown
Speed
Unknown
Apparent Right ascension
Unknown
Apparent Declination
Unknown
Sunlit
N/A
Visualization observer readout
Local Sidereal Time
20:07:32
Azimuth
Unknown
Elevation
Unknown
Doppler factor
Unknown
Orbital elements
Apogee altitude
1,669.394 km
Perigee altitude
958.441 km
Semi-major axis
7,692.055 km
Eccentricity
0.04621
Inclination
65.6977°
RAAN
145.5889°
Arg. of periapsis
97.2579°
True anomaly
79.2242°
Mean anomaly
74.0572°
Eccentric anomaly
76.63331°
Mean motion
3.21721 °/min
Orbital period
111.9 mins
BSTAR
0.00030948
Loading maneuver chart data...
Computing Atmospheric mass density...

Documentation

Showing up to 5 results
|